Weather History for Washington, MO

Change the Weather History Date:

Monday, November 5, 2012

  Actual Average (KSTL) Record (KSTL)
Temperature  
Mean Temperature 42 °F 52 °F  
Max Temperature 44 °F 61 °F 82 °F (1978)
Min Temperature 41 °F 43 °F 23 °F (1976)
Degree Days  
Heating Degree Days 22 14  
Month to date heating degree days 64  
Since 1 July heating degree days 340  
Cooling Degree Days 0 0  
Month to date cooling degree days 0  
Year to date cooling degree days 1642  
Moisture  
Dew Point 39 °F    
Average Humidity 89    
Maximum Humidity 100    
Minimum Humidity 66    
Precipitation  
Precipitation 0.00 in 0.13 in 1.62 in (1956)
Month to date precipitation 0.60  
Year to date precipitation 34.81  
Snow  
Snow - 0.00 in 3.40 in (1951)
Month to date snowfall 0.0  
Since 1 July snowfall 0.0  
Since 1 September snowfall 0.0  
Snow Depth -    
Sea Level Pressure  
Sea Level Pressure 30.08 in    
Wind  
Wind Speed 5 mph ()    
Max Wind Speed 12 mph    
Max Gust Speed 17 mph    
Visibility 7.8 miles    
Events Rain    
T = Trace of Precipitation, MM = Missing Value Source: Averaged Metar Reports

Daily Weather History Graph

Daily Weather History Graph

Search for Another Location

Airport:

Trip Planner

Search our weather history database for the weather conditions in past years. The results will help you decide how hot, cold, wet, or windy it might be!

Date:

Astronomy

Nov. 05, 2012 Rise Set
Actual Time 6:35 AM CST 4:59 PM CST
Civil Twilight 6:07 AM CST 5:26 PM CST
Nautical Twilight 5:36 AM CST 5:58 PM CST
Astronomical Twilight 5:05 AM CST 6:29 PM CST
Moon 10:36 PM CST (11/5) 11:54 AM CST (11/5)
Length of Visible Light 11h 19m
Length of Day
10h 23m
Waning Gibbous, 62% of the Moon is Illuminated
Nov 5
Waning Gibbous
Nov 6
Last Quarter
Nov 13
New
Nov 20
First Quarter
Nov 28
Full

Hourly Weather History & Observations

Time (CST) Temp. Windchill Dew Point Humidity Pressure Visibility Wind Dir Wind Speed Gust Speed Precip Events Conditions
12:15 AM 44.6 °F 42.2 °F 33.8 °F 66% 30.15 in 10.0 mi SSE 4.6 mph - N/A   Mostly Cloudy
12:35 AM 42.8 °F - 35.6 °F 76% 30.15 in 10.0 mi Calm Calm - N/A   Overcast
12:55 AM 42.8 °F - 35.6 °F 76% 30.15 in 10.0 mi Calm Calm - N/A   Overcast
1:15 AM 42.8 °F - 35.6 °F 76% 30.15 in 10.0 mi Calm Calm - N/A   Overcast
1:35 AM 42.8 °F - 35.6 °F 76% 30.13 in 10.0 mi Calm Calm - N/A   Overcast
2:15 AM 44.6 °F 40.7 °F 35.6 °F 71% 30.12 in 10.0 mi SE 6.9 mph - N/A   Overcast
2:35 AM 42.8 °F 37.0 °F 35.6 °F 76% 30.10 in 10.0 mi ESE 10.4 mph - N/A   Overcast
2:55 AM 42.8 °F 37.0 °F 35.6 °F 76% 30.08 in 10.0 mi ESE 10.4 mph - N/A   Overcast
3:15 AM 42.8 °F 38.6 °F 35.6 °F 76% 30.08 in 10.0 mi SE 6.9 mph - N/A   Overcast
3:35 AM 42.8 °F 40.1 °F 37.4 °F 81% 30.09 in 9.0 mi SE 4.6 mph - N/A   Overcast
3:55 AM 42.8 °F 38.6 °F 37.4 °F 81% 30.08 in 8.0 mi SE 6.9 mph - N/A   Overcast
4:15 AM 42.8 °F - 37.4 °F 81% 30.08 in 10.0 mi Calm Calm - N/A   Overcast
4:35 AM 42.8 °F 38.0 °F 37.4 °F 81% 30.07 in 10.0 mi ESE 8.1 mph - N/A   Overcast
4:55 AM 42.8 °F 37.5 °F 37.4 °F 81% 30.07 in 8.0 mi ESE 9.2 mph - N/A   Overcast
5:15 AM 41.0 °F 36.4 °F 37.4 °F 87% 30.07 in 9.0 mi SE 6.9 mph - N/A   Overcast
5:35 AM 41.0 °F 37.1 °F 37.4 °F 87% 30.07 in 7.0 mi SE 5.8 mph - N/A Rain Light Rain
5:55 AM 41.0 °F 35.2 °F 37.4 °F 87% 30.06 in 5.0 mi ESE 9.2 mph - N/A Rain Light Rain
6:15 AM 41.0 °F 35.2 °F 37.4 °F 87% 30.06 in 7.0 mi ESE 9.2 mph 17.3 mph N/A   Overcast
6:35 AM 41.0 °F 35.8 °F 37.4 °F 87% 30.06 in 5.0 mi ESE 8.1 mph - N/A Rain Light Rain
6:55 AM 41.0 °F 35.2 °F 39.2 °F 93% 30.06 in 4.0 mi ESE 9.2 mph - N/A   Mostly Cloudy
7:15 AM 41.0 °F 34.7 °F 39.2 °F 93% 30.05 in 5.0 mi ESE 10.4 mph - N/A Rain Light Rain
7:35 AM 41.0 °F 35.2 °F 39.2 °F 93% 30.06 in 10.0 mi ESE 9.2 mph - N/A   Overcast
7:55 AM 41.0 °F 36.4 °F 39.2 °F 93% 30.06 in 10.0 mi SE 6.9 mph - N/A   Overcast
8:15 AM 41.0 °F 35.2 °F 39.2 °F 93% 30.06 in 8.0 mi SE 9.2 mph - N/A   Overcast
8:35 AM 41.0 °F 35.8 °F 39.2 °F 93% 30.06 in 10.0 mi SE 8.1 mph - N/A   Overcast
8:55 AM 41.0 °F 35.2 °F 39.2 °F 93% 30.06 in 10.0 mi ESE 9.2 mph - N/A   Overcast
9:15 AM 41.0 °F 36.4 °F 39.2 °F 93% 30.06 in 9.0 mi ESE 6.9 mph - N/A   Overcast
9:35 AM 41.0 °F - 39.2 °F 93% 30.06 in 2.0 mi Calm Calm - N/A Rain Light Rain
9:55 AM 41.0 °F 34.7 °F 41.0 °F 100% 30.06 in 2.5 mi ESE 10.4 mph - N/A Rain Light Rain
10:15 AM 41.0 °F 34.7 °F 41.0 °F 100% 30.07 in 2.5 mi SE 10.4 mph - N/A Rain Light Rain
10:35 AM 41.0 °F 35.2 °F 41.0 °F 100% 30.07 in 3.0 mi ESE 9.2 mph - N/A Rain Light Rain
10:55 AM 41.0 °F 34.3 °F 41.0 °F 100% 30.07 in 9.0 mi ESE 11.5 mph - N/A   Overcast
11:15 AM 41.0 °F 34.7 °F 41.0 °F 100% 30.07 in 9.0 mi ESE 10.4 mph 17.3 mph N/A   Overcast
11:35 AM 42.8 °F 37.0 °F 41.0 °F 93% 30.06 in 9.0 mi ESE 10.4 mph 16.1 mph N/A   Overcast
11:55 AM 42.8 °F 37.5 °F 41.0 °F 93% 30.06 in 9.0 mi ESE 9.2 mph - N/A   Overcast
12:15 PM 42.8 °F 36.6 °F 39.2 °F 87% 30.06 in 10.0 mi ESE 11.5 mph - N/A   Overcast
12:35 PM 42.8 °F 37.0 °F 39.2 °F 87% 30.05 in 9.0 mi SE 10.4 mph - N/A   Overcast
12:55 PM 42.8 °F 38.0 °F 41.0 °F 93% 30.05 in 8.0 mi ESE 8.1 mph - N/A   Overcast
1:15 PM 42.8 °F 37.5 °F 41.0 °F 93% 30.05 in 7.0 mi ESE 9.2 mph - N/A   Overcast
1:35 PM 42.8 °F 38.0 °F 41.0 °F 93% 30.05 in 5.0 mi ESE 8.1 mph - N/A   Overcast
1:55 PM 42.8 °F 37.5 °F 41.0 °F 93% 30.04 in 5.0 mi ESE 9.2 mph - N/A   Overcast
2:15 PM 42.8 °F 38.6 °F 41.0 °F 93% 30.04 in 5.0 mi ESE 6.9 mph - N/A   Overcast
2:35 PM 42.8 °F 39.3 °F 41.0 °F 93% 30.04 in 4.0 mi ESE 5.8 mph - N/A   Overcast
2:55 PM 42.8 °F 39.3 °F 41.0 °F 93% 30.04 in 4.0 mi ESE 5.8 mph - N/A Rain Light Rain
3:15 PM 44.6 °F 39.7 °F 41.0 °F 87% 30.04 in 5.0 mi ESE 9.2 mph - N/A   Mostly Cloudy
3:35 PM 44.6 °F 40.7 °F 41.0 °F 87% 30.05 in 7.0 mi ESE 6.9 mph - N/A   Overcast
4:15 PM 44.6 °F 41.4 °F 41.0 °F 87% 30.04 in 10.0 mi ESE 5.8 mph - N/A   Overcast
4:35 PM 44.6 °F 40.7 °F 41.0 °F 87% 30.05 in 10.0 mi SE 6.9 mph - N/A   Overcast
4:55 PM 44.6 °F 43.1 °F 41.0 °F 87% 30.05 in 10.0 mi ESE 3.5 mph - N/A   Overcast
5:15 PM 44.6 °F - 41.0 °F 87% 30.06 in 10.0 mi Calm Calm - N/A   Overcast
5:35 PM 42.8 °F - 41.0 °F 93% 30.06 in 10.0 mi Calm Calm - N/A   Overcast
5:55 PM 42.8 °F - 41.0 °F 93% 30.07 in 10.0 mi Calm Calm - N/A   Overcast
6:15 PM 42.8 °F - 41.0 °F 93% 30.08 in 10.0 mi Calm Calm - N/A   Overcast
6:35 PM 42.8 °F - 41.0 °F 93% 30.09 in 10.0 mi Calm Calm - N/A   Overcast
6:55 PM 42.8 °F - 39.2 °F 87% 30.10 in 10.0 mi Calm Calm - N/A   Overcast
7:15 PM 42.8 °F - 39.2 °F 87% 30.10 in 10.0 mi Calm Calm - N/A   Overcast
7:35 PM 42.8 °F - 39.2 °F 87% 30.10 in 10.0 mi Calm Calm - N/A   Overcast
7:55 PM 42.8 °F - 41.0 °F 93% 30.10 in 4.0 mi Calm Calm - N/A   Mostly Cloudy
8:15 PM 42.8 °F - 41.0 °F 93% 30.09 in 6.0 mi Calm Calm - N/A   Overcast
8:35 PM 42.8 °F 39.3 °F 39.2 °F 87% 30.10 in 7.0 mi ESE 5.8 mph - N/A   Overcast
8:55 PM 42.8 °F 38.6 °F 39.2 °F 87% 30.10 in 8.0 mi SE 6.9 mph - N/A   Overcast
9:15 PM 42.8 °F - 39.2 °F 87% 30.10 in 8.0 mi Calm Calm - N/A   Overcast
9:35 PM 42.8 °F - 39.2 °F 87% 30.10 in 8.0 mi Calm Calm - N/A   Overcast
9:55 PM 41.0 °F - 39.2 °F 93% 30.10 in 7.0 mi Calm Calm - N/A   Overcast
10:15 PM 41.0 °F - 39.2 °F 93% 30.09 in 7.0 mi Calm Calm - N/A   Overcast
10:35 PM 41.0 °F - 39.2 °F 93% 30.08 in 7.0 mi Calm Calm - N/A   Overcast
10:55 PM 41.0 °F - 39.2 °F 93% 30.08 in 5.0 mi Calm Calm - N/A   Overcast
11:15 PM 41.0 °F - 39.2 °F 93% 30.08 in 6.0 mi Calm Calm - N/A   Overcast
11:35 PM 41.0 °F - 39.2 °F 93% 30.08 in 6.0 mi Calm Calm - N/A   Overcast
11:55 PM 41.0 °F - 39.2 °F 93% 30.08 in 6.0 mi Calm Calm - N/A   Overcast